Location: Saint Louis
(38.6272°N, 90.1978°W)
Time: 15:09:27
(UTC-06:00)

HST - Visible Passes

Search period start: 22 November 2014 00:00
Search period end: 02 December 2014 00:00
Orbit: 545 x 550 km, 28.5° (Epoch: 21 November)

Date Brightness Start Highest point End Pass type
(mag) Time Alt. Az. Time Alt. Az. Time Alt. Az.
22 Nov 3.3 05:13:49 10° SSW 05:16:13 15° SSE 05:18:37 10° SE visible
23 Nov 3.1 05:06:26 12° SSW 05:08:35 17° S 05:11:18 10° SE visible
24 Nov 2.9 04:59:35 16° SSW 05:00:58 18° S 05:03:52 10° SE visible
25 Nov 2.7 04:52:39 19° S 04:53:20 19° S 04:56:22 10° SE visible
26 Nov 2.7 04:45:40 20° S 04:45:42 20° S 04:48:48 10° SE visible
26 Nov 3.1 06:23:52 10° SW 06:26:29 16° SSW 06:29:05 10° SSE visible
27 Nov 2.9 04:38:39 20° S 04:38:39 20° S 04:41:10 10° SE visible
27 Nov 3.2 06:16:33 10° SW 06:18:49 14° SSW 06:21:04 10° SSE visible
28 Nov 3.1 04:31:36 18° SSE 04:31:36 18° SSE 04:33:28 10° SE visible
28 Nov 3.2 06:09:27 10° SW 06:11:08 12° SSW 06:12:49 10° S visible
29 Nov 3.3 04:24:32 15° SSE 04:24:32 15° SSE 04:25:42 10° SE visible
30 Nov 3.6 04:17:28 11° SSE 04:17:28 11° SSE 04:17:51 10° SSE visible
